sat.trackr.live / text

‹ back to catalog

STARLINK-5095

NORAD 56885 · 2023-083K

PAYLOAD ACTIVE UNKNOWN

§ Identity

Operator
Country
US
Launch date
2023-06-12
Launch site
AFETR
Launch vehicle
Mass (kg)
RCS (m²)

Purposes: comms

External: N2YO · Heavens-Above · Gunter

§ Orbital elements

Epoch: 2026-05-25T00:07:05.061216Z

Period
94.28 min
Inclination
43.0015°
Eccentricity
0.0001265
Mean motion
15.27419505 rev/d
Perigee alt
482.7 km
Apogee alt
484.4 km
Semi-major
6,861.7 km
B*
1.2184e-3
RAAN
14.0509°
Arg perigee
251.5067°
Mean anomaly
108.5647°
Rev number
16,330

§ Raw data

STARLINK-50951 56885U 23083K   26145.00491969  .00033252  00000+0  12184-2 0  99962 56885  43.0015  14.0509 0001265 251.5067 108.5647 15.27419505163309

JSON: /api/v1/satellites/56885 · /tle

For live sub-satellite position, see the globe view (requires WebGL).

§ Visibility from observer

Set your observer location to see the next 7 days of passes ≥ 10°. The values pass through the URL so the page stays shareable.

No JS? Fill the form by hand. The geolocation button needs JavaScript.